Regional Weather Roundup
Issued by NWS

Home | Current Version | Previous Version | Graphics & Text | Print | Product List | Glossary On
Versions: 1 2 3 4 5 6 7 8 9 10 11 12 13 14 15 16 17 18 19 20 21 22 23 24 25 26 27 28 29 30 31 32 33 34 35 36 37 38 39 40 41 42 43 44 45 46 47 48 49 50
000
ASUS43 KBIS 210502
RWRND

NORTH DAKOTA REGIONAL WEATHER ROUNDUP
NATIONAL WEATHER SERVICE BISMARCK ND
1100 PM CST MON FEB 20 2017

NOTE: "FAIR" INDICATES FEW OR NO CLOUDS BELOW 12,000 FEET WITH NO
SIGNIFICANT WEATHER AND/OR OBSTRUCTIONS TO VISIBILITY.


NDZ001>003-009>011-017-210600-
NORTHWEST NORTH DAKOTA

CITY           SKY/WX    TMP DP  RH WIND       PRES   REMARKS
WILLISTON      CLOUDY    37  30  75 NW7       29.66R
MINOT          MOCLDY    38  31  76 SW8       29.69S
MINOT AFB      CLOUDY    33  29  87 CALM      29.68S
$$

NDZ018>021-031>035-040>046-210600-
SOUTHWEST NORTH DAKOTA

CITY           SKY/WX    TMP DP  RH WIND       PRES   REMARKS
BISMARCK       FAIR      35  32  88 E6        29.73F
DICKINSON      CLOUDY    40  27  59 SE13      29.67R
GARRISON         N/A     35  31  85 E5        29.69F
HETTINGER ARPT CLOUDY    45  26  47 SE12      29.71F
$$

NDZ004>008-012>016-024-026-027-054-210600-
NORTHEAST NORTH DAKOTA

CITY           SKY/WX    TMP DP  RH WIND       PRES   REMARKS
GRAND FORKS    CLEAR     31  26  82 S7        29.73R
GRND FRKS AFB  CLEAR     32  31  99 CALM      29.72F
DEVILS LAKE    FAIR      30  29  96 CALM      29.71F FOG
$$

NDZ022-023-025-028>030-036>039-047>053-210600-
SOUTHEAST NORTH DAKOTA

CITY           SKY/WX    TMP DP  RH WIND       PRES   REMARKS
FARGO          CLEAR     32  31  96 S8        29.77R FOG
JAMESTOWN      FAIR      31  29  92 S6        29.75F
$$




USA.gov is the U.S. government's official web portal to all federal, state and local government web resources and services.